THOR AGENA B DEB, 1951

Orbit data source: Space-Track

THOR AGENA B DEB, 1951 is space debris in LEO originally from a launch on Mon, 29 Nov 1965 UTC launched from the Air Force Western Test Range (AFWTR). Debris objects in space refer to the collection of defunct objects orbiting the Earth. Examples of debris include non-operational satellites, rocket bodies, and fragments generated from explosions, collisions, or faulty payload assembly.

Loading next visibility...
THOR AGENA B DEB details
Identifier
1951, 1965-098G
Orbit
LEO
Last TLE update19 hours ago
Origin
Flag of USGSFC (US)
ManufacturerUnknown
MissionSpacecraft
Bus & MotorUnknown
Mass~1 kg wet, ~1 kg dry
Launch date (UTC)
1965-11-29 (59 years ago)
Launch vehicleUnknown
Launch site
Air Force Western Test Range (AFWTR)
Object type
Payload
Rocket body
Debris
Shape & HBRHalf Cyl + Cone, 1.5 m
Radar Cross Section0.531 m², Medium (>0.1 m² and < 1m²)

Expand to show TLE details & history

TLE from 19 hours ago
0 THOR AGENA B DEB
1 01951U 65098G   24355.73469950  .00016637  00000-0  31860-2 0  9999
2 01951  79.6133 163.0898 0796456 161.3672 201.8502 13.50387943734022
Epoch: 2024-12-20T17:37Z
Definitive object data (Epoch: 2024-12-20T17:37:58.036Z)
Latitude-0.00003°
Longitude168.80202°
Altitude1,630.272 km
Speed6.788 km/s
True Right ascension10h 52m 21s
True Declination0° 00' 00"
Sunlit
Object was in daylight at TLE epoch
Visualization TLE readout
Latitude-68.16188°
Longitude140.88397°
Altitude1,449.072 km
Speed6.965 km/s
Apparent Right ascension02h 11m 50s
Apparent Declination-73° 26' 05"
Sunlit
Object is in daylight
Visualization observer readout
Local Sidereal Time11:49:23
Azimuth195.807° SSW
Elevation-52.449°
Doppler factor1
Orbital elements
Apogee altitude1,661.207 km
Perigee altitude475.08 km
Semi-major axis7,446.28 km
Eccentricity0.0796456
Inclination79.6133°
RAAN163.0898°
Arg. of periapsis161.3672°
True anomaly198.74309°
Mean anomaly201.8502°
Eccentric anomaly200.2693°
Mean motion3.3778 °/min
BSTAR0.003186
Orbital period106.58 mins
Loading maneuver chart data...
Loading historical data...
Loading historical data...
Loading historical data...
Loading historical data...
Loading historical data...
Loading historical data...
Loading historical data...

THOR AGENA B DEB Visibility forecast

Observer location: undefined°, undefined

Span
Click to sort rows by Start time (UTC) header in descending order
Start Az.
Max El. time (UTC)
Max El. Az.
Max El.
End time (UTC)
End Az.
13 mins2024-12-21 13:18:32.453Z225.159° WSW2024-12-21 13:25:32.453Z281.586° WNW30.498°2024-12-21 13:31:32.453Z348.886° N
5 mins2024-12-21 22:43:32.453Z9.551° NNE2024-12-21 22:45:32.453Z57.011° ENE34.25°2024-12-21 22:48:32.453Z143.961° SSE
10 mins2024-12-22 10:39:32.453Z131.465° SE2024-12-22 10:44:32.453Z91.674° ESE21.559°2024-12-22 10:49:32.453Z45.506° ENE
14 mins2024-12-22 12:24:32.453Z199.561° SSW2024-12-22 12:32:32.453Z296.32° NW43.232°2024-12-22 12:38:32.453Z5.299° NNE
|